SCP
0 0 0 1 1 0 1 1 1 0 0 0 0 0 0 0 0 0 0 0 0 0 0 0 0 0 0 0 0 0 0 0
0 0 0 1 1 1 1 1 1 1 1 0 0 0 0 0 0 0 0 0 0 0 0 0 0 0 0 0 0 0 0 0
0 0 0 1 1 1 1 1 1 1 1 1 1 1 0 0 0 0 0 0 0 0 0 0 0 0 0 0 0 0 0 0
0 0 0 1 1 1 1 1 2 2 2 2 2 1 1 0 0 0 0 0 0 0 0 0 0 0 0 0 0 0 0 0
0 0 0 1 2 1 2 2 2 2 2 2 2 1 1 0 0 0 0 0 0 0 0 0 0 0 0 0 0 0 0 0
0 0 0 1 1 1 1 2 3 2 2 2 1 1 0 0 0 0 0 0 0 0 0 0 0 0 0 0 0 0 0 0
0 0 0 0 1 1 1 1 1 1 0 0 0 0 0 0 0 0 0 0 0 0 0 0 0 0 0 0 0 0 0 0
0 0 0 0 0 0 0 0 0 0 0 0 0 0 0 0 0 0 0 0 0 0 0 0 0 0 0 0 0 0 0 0
0 0 0 0 0 0 0 0 0 0 0 0 0 0 0 0 0 0 0 0 0 0 0 0 0 0 0 0 0 0 0 0
0 0 0 0 0 0 0 0 0 0 0 0 0 0 0 0 0 0 0 0 0 0 0 0 0 0 0 0 0 0 0 0
0 0 0 0 0 0 0 0 0 0 0 0 0 0 0 0 0 0 0 0 0 0 0 0 0 0 0 0 0 0 0 0
0 0 0 0 0 0 0 0 0 0 0 0 0 0 0 0 0 0 0 0 0 0 0 0 0 0 0 0 0 0 0 0
0 0 0 0 0 0 0 0 0 0 0 0 0 0 0 0 0 0 0 0 0 0 0 0 0 0 0 0 0 0 0 0
0 0 0 0 0 0 0 0 0 0 0 0 0 0 0 0 0 0 0 0 0 0 0 0 0 0 0 0 0 0 0 0
0 0 0 0 0 0 0 0 0 0 0 0 0 0 0 0 0 0 0 0 0 0 0 0 0 0 0 0 0 0 0 0
0 0 0 0 0 0 0 0 0 0 0 0 0 0 0 0 0 0 0 0 0 0 0 0 0 0 0 0 0 0 0 0
0 0 0 0 0 0 0 0 0 0 0 0 0 0 0 0 0 0 0 0 0 0 0 0 0 0 0 0 0 0 0 0
0 0 0 0 0 0 0 0 0 0 0 0 0 0 0 0 0 0 0 0 0 0 0 0 -0 0 0 0 0 0 0 0
0 0 0 0 0 0 0 0 0 0 0 0 0 0 0 0 0 0 0 0 0 0 0 0 0 0 0 0 0 0 0 0
Wind_Speed_500mb
18 23 26 27 29 30 26 22 18 19 20 22 27 28 26 26 31 36 31 32 33 33 33 30 32 29 31 31 30 30 33 34
19 24 27 28 28 30 27 22 19 18 17 21 27 27 25 32 32 35 37 38 36 37 36 36 34 31 30 36 34 33 31 30
16 19 29 31 34 32 27 24 22 21 20 26 30 26 25 27 31 36 38 41 43 41 43 43 41 38 39 38 34 35 34 31
26 26 34 36 39 38 32 28 26 25 26 31 34 27 25 26 32 30 31 38 41 46 48 45 46 44 42 42 40 40 39 37
36 36 42 41 42 41 37 34 29 29 34 37 35 29 28 28 27 27 32 31 33 36 40 43 46 46 49 47 47 43 41 37
52 49 50 49 45 44 41 36 33 34 37 39 37 33 31 30 29 29 28 25 26 30 31 28 32 35 43 48 50 47 44 43
61 56 55 54 53 48 44 38 36 36 39 37 36 33 33 32 33 32 28 26 25 27 30 31 36 34 36 45 47 45 45 44
60 58 57 57 55 52 45 38 35 38 35 32 30 28 29 31 33 33 25 23 24 22 24 31 36 33 33 41 44 43 45 40
66 63 61 58 55 50 43 36 34 35 28 23 21 23 26 27 31 28 27 24 23 21 21 23 24 32 30 34 39 42 44 37
70 70 65 59 54 48 42 36 33 27 20 19 19 22 24 26 29 28 29 27 23 22 24 25 24 26 27 31 35 37 38 38
78 77 66 60 53 47 39 35 27 20 15 19 19 22 24 26 27 28 29 29 27 23 23 22 25 26 28 30 33 34 33 34
81 79 66 59 53 46 37 29 21 14 17 20 22 25 26 26 26 26 28 30 29 25 22 20 22 26 29 31 32 33 32 34
86 77 63 59 54 42 34 24 17 16 16 20 23 25 26 27 26 26 26 26 27 27 23 20 22 25 26 32 33 32 29 33
81 71 59 59 50 37 29 22 18 15 16 20 22 23 27 30 28 26 25 25 28 28 23 20 20 25 24 30 32 31 28 33
67 60 55 55 42 34 27 21 16 15 19 24 26 27 28 28 28 26 22 24 26 26 23 22 22 26 24 28 27 28 28 30
52 61 64 53 39 32 25 19 14 15 21 26 26 28 30 25 24 25 20 23 25 22 20 22 26 29 25 24 25 22 25 23
61 73 62 42 33 27 22 15 13 17 21 26 27 23 17 17 23 22 18 21 22 20 21 20 29 35 29 26 24 22 15 14
69 68 50 36 30 25 17 12 11 15 20 19 15 9 11 15 18 14 15 21 17 17 16 16 31 31 32 30 21 14 11 8
67 53 39 32 27 20 14 8 9 13 19 14 11 9 12 13 9 5 16 17 14 14 14 20 27 27 29 29 28 21 14 14
Wind_Direction_500mb
185 195 198 200 208 214 222 237 262 281 296 302 301 290 283 266 263 271 275 270 272 268 263 255 250 250 262 266 268 265 262 257
194 200 207 208 207 217 226 235 252 268 278 292 305 295 274 272 269 270 270 271 269 263 261 261 261 257 256 254 257 264 263 259
213 214 214 214 216 220 226 236 249 264 278 293 300 286 270 273 277 275 273 268 262 256 258 260 252 253 250 250 250 254 260 248
213 221 219 218 219 222 230 237 251 264 276 284 289 280 269 273 276 273 275 274 263 253 254 254 254 251 250 250 250 248 251 242
222 224 224 224 220 224 228 235 250 268 279 285 282 271 267 271 269 271 288 277 265 262 253 254 257 255 251 250 249 245 244 245
221 225 225 227 221 223 229 236 251 264 278 281 272 267 271 274 276 284 291 285 271 260 258 253 256 257 248 244 246 243 240 242
224 226 224 224 223 221 225 235 252 265 277 273 267 268 272 273 274 288 291 294 282 268 255 243 245 258 244 240 240 237 236 240
232 228 227 221 221 223 226 237 255 270 268 263 262 263 266 268 275 285 281 285 278 268 260 250 248 250 240 238 236 233 231 235
234 233 228 221 221 223 227 239 257 265 260 261 262 266 272 280 283 275 274 271 274 267 267 266 256 246 248 233 232 231 228 237
236 235 227 224 223 226 231 242 262 264 267 270 266 273 285 291 288 274 269 264 268 268 260 259 258 243 240 228 224 227 228 237
237 234 229 226 225 226 230 251 263 261 269 275 270 281 286 295 294 280 268 261 253 264 261 263 256 240 233 228 221 222 225 230
239 233 230 225 222 219 234 251 257 263 281 282 280 280 281 289 295 282 268 255 244 256 259 261 251 232 228 219 213 216 220 221
236 228 227 222 220 216 234 246 243 260 278 287 283 280 276 283 294 288 272 251 241 249 254 263 247 229 227 214 211 212 225 215
235 228 222 218 208 220 227 232 238 263 287 293 294 288 276 280 289 293 279 247 237 240 248 255 242 222 220 210 210 214 219 212
232 226 215 203 206 215 221 227 243 269 287 299 300 290 283 278 287 294 278 238 230 233 241 244 232 212 210 209 214 213 214 212
220 213 198 196 205 215 215 224 250 276 299 304 298 292 285 269 285 291 269 233 223 232 241 239 223 204 200 192 193 202 206 216
216 193 191 191 206 207 212 224 257 293 311 313 306 296 274 272 290 282 258 223 219 232 238 233 203 193 188 182 185 179 180 204
193 181 179 190 198 200 210 223 274 309 326 325 323 311 299 303 296 271 228 207 219 230 227 210 187 188 189 179 175 172 156 194
174 174 179 189 191 198 203 225 297 317 334 335 342 331 317 320 314 240 187 202 218 210 200 186 183 185 188 187 187 184 190 199
Wind_Speed_850mb
18 23 26 27 29 30 26 22 18 19 20 22 27 28 26 26 31 36 31 32 33 33 33 30 32 29 31 31 30 30 33 34
19 24 27 28 28 30 27 22 19 18 17 21 27 27 25 32 32 35 37 38 36 37 36 36 34 31 30 36 34 33 31 30
16 19 29 31 34 32 27 24 22 21 20 26 30 26 25 27 31 36 38 41 43 41 43 43 41 38 39 38 34 35 34 31
26 26 34 36 39 38 32 28 26 25 26 31 34 27 25 26 32 30 31 38 41 46 48 45 46 44 42 42 40 40 39 37
36 36 42 41 42 41 37 34 29 29 34 37 35 29 28 28 27 27 32 31 33 36 40 43 46 46 49 47 47 43 41 37
52 49 50 49 45 44 41 36 33 34 37 39 37 33 31 30 29 29 28 25 26 30 31 28 32 35 43 48 50 47 44 43
61 56 55 54 53 48 44 38 36 36 39 37 36 33 33 32 33 32 28 26 25 27 30 31 36 34 36 45 47 45 45 44
60 58 57 57 55 52 45 38 35 38 35 32 30 28 29 31 33 33 25 23 24 22 24 31 36 33 33 41 44 43 45 40
66 63 61 58 55 50 43 36 34 35 28 23 21 23 26 27 31 28 27 24 23 21 21 23 24 32 30 34 39 42 44 37
70 70 65 59 54 48 42 36 33 27 20 19 19 22 24 26 29 28 29 27 23 22 24 25 24 26 27 31 35 37 38 38
78 77 66 60 53 47 39 35 27 20 15 19 19 22 24 26 27 28 29 29 27 23 23 22 25 26 28 30 33 34 33 34
81 79 66 59 53 46 37 29 21 14 17 20 22 25 26 26 26 26 28 30 29 25 22 20 22 26 29 31 32 33 32 34
86 77 63 59 54 42 34 24 17 16 16 20 23 25 26 27 26 26 26 26 27 27 23 20 22 25 26 32 33 32 29 33
81 71 59 59 50 37 29 22 18 15 16 20 22 23 27 30 28 26 25 25 28 28 23 20 20 25 24 30 32 31 28 33
67 60 55 55 42 34 27 21 16 15 19 24 26 27 28 28 28 26 22 24 26 26 23 22 22 26 24 28 27 28 28 30
52 61 64 53 39 32 25 19 14 15 21 26 26 28 30 25 24 25 20 23 25 22 20 22 26 29 25 24 25 22 25 23
61 73 62 42 33 27 22 15 13 17 21 26 27 23 17 17 23 22 18 21 22 20 21 20 29 35 29 26 24 22 15 14
69 68 50 36 30 25 17 12 11 15 20 19 15 9 11 15 18 14 15 21 17 17 16 16 31 31 32 30 21 14 11 8
67 53 39 32 27 20 14 8 9 13 19 14 11 9 12 13 9 5 16 17 14 14 14 20 27 27 29 29 28 21 14 14
Wind_Direction_850mb
185 195 198 200 208 214 222 237 262 281 296 302 301 290 283 266 263 271 275 270 272 268 263 255 250 250 262 266 268 265 262 257
194 200 207 208 207 217 226 235 252 268 278 292 305 295 274 272 269 270 270 271 269 263 261 261 261 257 256 254 257 264 263 259
213 214 214 214 216 220 226 236 249 264 278 293 300 286 270 273 277 275 273 268 262 256 258 260 252 253 250 250 250 254 260 248
213 221 219 218 219 222 230 237 251 264 276 284 289 280 269 273 276 273 275 274 263 253 254 254 254 251 250 250 250 248 251 242
222 224 224 224 220 224 228 235 250 268 279 285 282 271 267 271 269 271 288 277 265 262 253 254 257 255 251 250 249 245 244 245
221 225 225 227 221 223 229 236 251 264 278 281 272 267 271 274 276 284 291 285 271 260 258 253 256 257 248 244 246 243 240 242
224 226 224 224 223 221 225 235 252 265 277 273 267 268 272 273 274 288 291 294 282 268 255 243 245 258 244 240 240 237 236 240
232 228 227 221 221 223 226 237 255 270 268 263 262 263 266 268 275 285 281 285 278 268 260 250 248 250 240 238 236 233 231 235
234 233 228 221 221 223 227 239 257 265 260 261 262 266 272 280 283 275 274 271 274 267 267 266 256 246 248 233 232 231 228 237
236 235 227 224 223 226 231 242 262 264 267 270 266 273 285 291 288 274 269 264 268 268 260 259 258 243 240 228 224 227 228 237
237 234 229 226 225 226 230 251 263 261 269 275 270 281 286 295 294 280 268 261 253 264 261 263 256 240 233 228 221 222 225 230
239 233 230 225 222 219 234 251 257 263 281 282 280 280 281 289 295 282 268 255 244 256 259 261 251 232 228 219 213 216 220 221
236 228 227 222 220 216 234 246 243 260 278 287 283 280 276 283 294 288 272 251 241 249 254 263 247 229 227 214 211 212 225 215
235 228 222 218 208 220 227 232 238 263 287 293 294 288 276 280 289 293 279 247 237 240 248 255 242 222 220 210 210 214 219 212
232 226 215 203 206 215 221 227 243 269 287 299 300 290 283 278 287 294 278 238 230 233 241 244 232 212 210 209 214 213 214 212
220 213 198 196 205 215 215 224 250 276 299 304 298 292 285 269 285 291 269 233 223 232 241 239 223 204 200 192 193 202 206 216
216 193 191 191 206 207 212 224 257 293 311 313 306 296 274 272 290 282 258 223 219 232 238 233 203 193 188 182 185 179 180 204
193 181 179 190 198 200 210 223 274 309 326 325 323 311 299 303 296 271 228 207 219 230 227 210 187 188 189 179 175 172 156 194
174 174 179 189 191 198 203 225 297 317 334 335 342 331 317 320 314 240 187 202 218 210 200 186 183 185 188 187 187 184 190 199